Simultaneous Nadir Overpasses (SNOs) Predictions

Prediction of SNOs between GOES-17 and NPP Satellite Orbit:

Table of predicted SNOs for the next 14.0 days since TLE Epoch: 4/17/2021
Index Date Time (GOES-17) GOES-17 Lat,Lon NPP Lat,Lon Distance(km) Time Diff (sec)
1 04/18/2021 22:33:22 0.03,-137.18 -0.04,-137.51 37.39 80
2 04/19/2021 22:17:16 0.03,-137.17 0.96,-132.97 478.35 80
3 04/21/2021 10:39:02 -0.02,-137.16 0.25,-138.23 123.24 80
4 04/22/2021 10:17:38 -0.02,-137.14 -0.80,-133.71 392.14 80
5 04/23/2021 22:39:33 0.01,-137.12 -0.41,-139.00 214.27 80
6 04/24/2021 22:23:28 0.02,-137.11 0.58,-134.46 300.79 80
7 04/26/2021 10:45:15 -0.01,-137.08 0.56,-139.73 301.86 80
8 04/27/2021 10:23:50 -0.02,-137.06 -0.43,-135.20 212.63 80
9 04/28/2021 22:45:45 0.02,-137.03 -0.78,-140.49 395.34 80
10 04/29/2021 22:29:39 0.02,-137.00 0.22,-135.95 118.71 80
